Regional Weather Roundup
Issued by NWS

Home | Current Version | Previous Version | Text Only | Print | Product List | Glossary Off
Versions: 1 2 3 4 5 6 7 8 9 10 11 12 13 14 15 16 17 18 19 20 21 22 23 24 25 26 27 28 29 30 31 32 33 34 35 36 37 38 39 40 41 42 43 44 45 46 47 48 49 50

000
ASUS45 KABQ 011301
RWRNM
WEATHER ROUNDUP FOR NEW MEXICO
NATIONAL WEATHER SERVICE ALBUQUERQUE NM
700 AM MDT MON SEP 01 2014

NOTE: "FAIR" MEANS FEW OR NO CLOUDS BELOW 12,000 FEET AGL WITH NO
       SIGNIFICANT WEATHER OR OBSTRUCTIONS TO VISION.

      THIS PRODUCT IS RELEASED AS TWO VERSIONS.  ONE VERSION NEAR
      THE TOP OF THE HOUR CONTAINING PRELIMINARY DATA FROM ALBUQUERQUE
      AND OTHER STATIONS.  A FINAL VERSION WITH ADDITIONAL DATA IS
      ISSUED ABOUT 10 MINUTES AFTER THE HOUR.

NMZ501-503-504-510>518-011400-
NORTHWEST PLATEAU/NORTHCENTRAL MOUNTAINS

CITY           SKY/WX    TMP DP  RH WIND       PRES   REMARKS
FARMINGTON     CLEAR     52  38  58 NE5       30.08R
LOS ALAMOS     CLEAR     66  35  31 NW6       30.21S
SANTA FE       CLEAR     56  38  50 SW5       30.15R
ANGEL FIRE     FAIR      41  33  75 CALM      30.30R

$$
NMZ402-403-502-505>509-011400-
WESTCENTRAL MOUNTAINS/SOUTHWEST MOUNTAINS

CITY           SKY/WX    TMP DP  RH WIND       PRES   REMARKS
GALLUP         CLEAR     53  35  50 E3        30.21R
SILVER CITY    CLEAR     59  36  41 NW12      30.16R

$$
NMZ407-409-411-412-011400-
SOUTHERN DESERTS

CITY           SKY/WX    TMP DP  RH WIND       PRES   REMARKS
LORDSBURG      FAIR      61  37  41 MISG      30.07R
DEMING         CLEAR     66  40  38 W12       30.05R
LAS CRUCES     CLEAR     65  38  37 NW3       30.06R
HOLLOMAN AFB   CLEAR     65  41  41 SE2       30.00R
ALAMOGORDO     CLEAR     61  39  44 CALM      30.02R
T OR C         CLEAR     70  41  34 W13       30.07R

$$
NMZ519>523-011400-
CENTRAL VALLEYS/CENTRAL HIGHLANDS

CITY           SKY/WX    TMP DP  RH WIND       PRES   REMARKS
ALBUQUERQUE    PTCLDY    63  40  42 SE9       30.11R
DOUBLE EAGLE   PTCLDY    59  37  44 CALM      30.14R
CLINES CORNERS CLEAR     51  36  56 W10       30.20R
BELEN          FAIR      62  40  43 S5        30.11R
SOCORRO        FAIR      72  41  32 SE6       30.08R

$$
NMZ524>526-539-540-011400-
SOUTHCENTRAL MOUNTAINS

CITY           SKY/WX    TMP DP  RH WIND       PRES   REMARKS
RUIDOSO        NOT AVBL

$$
NMZ527>531-011400-
NORTHEAST HIGHLANDS/NORTHEAST PLAINS

CITY           SKY/WX    TMP DP  RH WIND       PRES   REMARKS
LAS VEGAS      CLEAR     56  34  43 N8        30.17R
RATON          CLEAR     55  44  66 NE12      30.12R
CLAYTON        CLEAR     60  49  66 N12       30.06R

$$
NMZ532>537-011400-
EASTCENTRAL PLAINS

CITY           SKY/WX    TMP DP  RH WIND       PRES   REMARKS
TUCUMCARI      CLEAR     63  52  67 N5        29.98R
CANNON AFB     CLEAR     67  58  72 W7        29.98R
CLOVIS AIRPORT   N/A     66  57  72 W8        29.99R

$$
NMZ028-029-538-011400-
SOUTHEAST PLAINS

CITY           SKY/WX    TMP DP  RH WIND       PRES   REMARKS
ROSWELL        CLEAR     64  47  53 NE3       29.96R
CARLSBAD       CLEAR     67  55  65 W6        29.93R
HOBBS          CLEAR     70  61  73 S7        29.96R


$$


USA.gov is the U.S. government's official web portal to all federal, state and local government web resources and services.